User: anonymous   Login
Location: *
(50.9167°S, 179.4000°W)
Time: 19:26:05
(UTC+00:00)
Language:

SL-16 R/B - Orbit

View from above orbital plane
View from above orbital plane
View from above satellite
View from above satellite

Ground track
Ground track

The orbit data is extracted from the following two-line orbital elements,

1 28353U 04021B   24140.52159229 -.00000112  00000-0 -33427-4 0  9993
2 28353  70.9994 175.6281 0006955 304.3124  55.7339 14.14410199 29628
Epoch (UTC): 19 May 2024 12:31:05
Eccentricity: 0.0006955
inclination: 70.9994°
perigee height: 839 km
apogee height: 849 km
right ascension of ascending node: 175.6281°
argument of perigee: 304.3124°
revolutions per day: 14.14410199
mean anomaly at epoch: 55.7339°
orbit number at epoch: 2962

The dashed part of the orbit path shows where the satellite is in the earth's shadow,  

DLR